Year,Month,Day,Hour,Minute,Value (Times are PST for temperature in C)
2003,02,13,00,00,5.30
2003,02,13,00,01,5.30
2003,02,13,00,02,5.30
2003,02,13,00,03,5.30
2003,02,13,00,04,5.30
2003,02,13,00,05,5.30
2003,02,13,00,06,5.30
2003,02,13,00,07,5.30
2003,02,13,00,08,5.30
2003,02,13,00,09,5.30
2003,02,13,00,10,5.30
2003,02,13,00,11,5.30
2003,02,13,00,12,5.30
2003,02,13,00,13,5.30
2003,02,13,00,14,5.30
2003,02,13,00,15,5.30
2003,02,13,00,16,5.30
2003,02,13,00,17,5.30
2003,02,13,00,18,5.30
2003,02,13,00,19,5.30
2003,02,13,00,20,5.30
2003,02,13,00,21,5.30
2003,02,13,00,22,5.30
2003,02,13,00,23,5.30
2003,02,13,00,24,5.30
2003,02,13,00,25,5.30
2003,02,13,00,26,5.30
2003,02,13,00,27,5.30
2003,02,13,00,28,5.30
2003,02,13,03,49,5.80
2003,02,13,03,50,5.80
2003,02,13,03,51,5.80
2003,02,13,03,52,5.80
2003,02,13,03,53,5.80
2003,02,13,03,54,5.80
2003,02,13,03,55,5.80
2003,02,13,03,56,5.80
2003,02,13,03,57,5.80
2003,02,13,03,58,5.80
2003,02,13,03,59,5.80
2003,02,13,04,00,5.80
2003,02,13,04,01,5.80
2003,02,13,04,02,5.80
2003,02,13,04,03,5.80
2003,02,13,04,04,5.80
2003,02,13,04,05,5.80
2003,02,13,04,06,5.80
2003,02,13,04,07,5.80
2003,02,13,04,08,5.80
2003,02,13,04,09,5.80
2003,02,13,04,10,5.80
2003,02,13,04,11,5.80
2003,02,13,04,12,5.80
2003,02,13,04,13,5.80
2003,02,13,04,14,5.80
2003,02,13,04,15,5.80
2003,02,13,04,16,5.80
2003,02,13,04,17,5.80
2003,02,13,04,18,5.70
2003,02,13,04,19,5.40
2003,02,13,04,20,5.40
2003,02,13,04,21,5.40
2003,02,13,04,22,5.40
2003,02,13,04,23,5.40
2003,02,13,04,24,5.40
2003,02,13,04,25,5.40
2003,02,13,04,26,5.40
2003,02,13,04,27,5.40
2003,02,13,04,28,5.40
2003,02,13,04,29,5.40
2003,02,13,04,30,5.40
2003,02,13,04,31,5.40
2003,02,13,04,32,5.40
2003,02,13,04,33,5.40
2003,02,13,04,34,5.40
2003,02,13,04,35,5.40
2003,02,13,04,36,5.40
2003,02,13,04,37,5.40
2003,02,13,04,38,5.40
2003,02,13,04,39,5.40
2003,02,13,04,40,5.40
2003,02,13,04,41,5.10
2003,02,13,04,42,5.10
2003,02,13,04,43,5.10
2003,02,13,04,44,5.10
2003,02,13,04,45,5.10
2003,02,13,04,46,4.90
2003,02,13,04,47,4.90
2003,02,13,04,48,4.90
2003,02,13,04,49,4.90
2003,02,13,04,50,4.90
2003,02,13,04,51,4.70
2003,02,13,04,52,4.70
2003,02,13,04,53,4.70
2003,02,13,04,54,4.70
2003,02,13,04,55,4.70
2003,02,13,04,56,4.70
2003,02,13,04,57,4.70
2003,02,13,04,58,4.70
2003,02,13,04,59,4.70
2003,02,13,05,00,4.60
2003,02,13,05,01,4.60
2003,02,13,05,02,4.60
2003,02,13,05,03,4.60
2003,02,13,05,04,4.60
2003,02,13,05,05,4.60
2003,02,13,05,06,4.60
2003,02,13,05,07,4.60
2003,02,13,05,08,4.60
2003,02,13,05,09,4.60
2003,02,13,05,10,4.60
2003,02,13,05,11,4.60
2003,02,13,05,12,4.60
2003,02,13,05,13,4.60
2003,02,13,05,14,4.60
2003,02,13,05,15,4.60
2003,02,13,05,16,4.60
2003,02,13,05,17,4.60
2003,02,13,05,18,4.60
2003,02,13,05,19,4.60
2003,02,13,05,20,4.60
2003,02,13,05,21,4.60
2003,02,13,05,22,4.60
2003,02,13,05,23,4.60
2003,02,13,05,24,4.60
2003,02,13,05,25,4.60
2003,02,13,05,26,4.60
2003,02,13,05,27,4.60
2003,02,13,05,28,4.60
2003,02,13,05,29,4.60
2003,02,13,05,30,4.60
2003,02,13,05,31,4.60
2003,02,13,05,32,4.60
2003,02,13,05,33,4.60
2003,02,13,05,34,4.60
2003,02,13,05,35,4.60
2003,02,13,05,36,4.60
2003,02,13,05,37,4.60
2003,02,13,05,38,4.60
2003,02,13,05,39,4.60
2003,02,13,05,40,4.60
2003,02,13,05,41,4.60
2003,02,13,05,42,4.60
2003,02,13,05,43,4.60
2003,02,13,05,44,4.60
2003,02,13,05,45,4.60
2003,02,13,05,46,4.60
2003,02,13,05,47,4.60
2003,02,13,05,48,4.60
2003,02,13,05,49,4.60
2003,02,13,05,50,4.40
2003,02,13,05,51,4.40
2003,02,13,05,52,4.40
2003,02,13,05,53,4.40
2003,02,13,05,54,4.40
2003,02,13,05,55,4.40
2003,02,13,05,56,4.40
2003,02,13,05,57,4.40
2003,02,13,05,58,4.40
2003,02,13,05,59,4.40
2003,02,13,06,00,4.40
2003,02,13,06,01,4.40
2003,02,13,06,02,4.40
2003,02,13,06,03,4.40
2003,02,13,06,04,4.40
2003,02,13,06,05,4.40
2003,02,13,06,06,4.50
2003,02,13,06,07,4.50
2003,02,13,06,08,4.50
2003,02,13,06,09,4.50
2003,02,13,06,10,4.50
2003,02,13,06,11,4.50
2003,02,13,06,12,4.60
2003,02,13,06,13,4.60
2003,02,13,06,14,4.60
2003,02,13,06,15,4.60
2003,02,13,06,16,4.60
2003,02,13,06,17,4.60
2003,02,13,06,18,4.60
2003,02,13,06,19,4.60
2003,02,13,06,20,4.60
2003,02,13,06,21,4.60
2003,02,13,06,22,4.60
2003,02,13,06,23,4.70
2003,02,13,06,24,4.70
2003,02,13,06,25,4.70
2003,02,13,06,26,4.70
2003,02,13,06,27,4.70
2003,02,13,06,28,4.70
2003,02,13,06,29,4.70
2003,02,13,06,30,4.80
2003,02,13,06,31,4.80
2003,02,13,06,32,4.80
2003,02,13,06,33,4.80
2003,02,13,06,34,4.80
2003,02,13,06,35,4.80
2003,02,13,06,36,4.80
2003,02,13,06,37,4.80
2003,02,13,06,38,4.80
2003,02,13,06,39,4.80
2003,02,13,06,40,4.80
2003,02,13,06,41,4.80
2003,02,13,06,42,4.80
2003,02,13,06,43,4.80
2003,02,13,06,44,4.80
2003,02,13,06,45,4.80
2003,02,13,06,46,4.80
2003,02,13,06,47,4.80
2003,02,13,06,48,4.70
2003,02,13,06,49,4.70
2003,02,13,06,50,4.70
2003,02,13,06,51,4.70
2003,02,13,06,52,4.70
2003,02,13,06,53,4.70
2003,02,13,06,54,4.70
2003,02,13,06,55,4.70
2003,02,13,06,56,4.70
2003,02,13,06,57,4.70
2003,02,13,06,58,4.70
2003,02,13,06,59,4.70
2003,02,13,07,00,4.70
2003,02,13,07,01,4.70
2003,02,13,07,02,4.70
2003,02,13,07,03,4.70
2003,02,13,07,04,4.70
2003,02,13,07,05,4.70
2003,02,13,07,06,4.70
2003,02,13,07,07,4.70
2003,02,13,07,08,4.70
2003,02,13,08,22,4.60
2003,02,13,08,23,4.70
2003,02,13,08,24,4.70
2003,02,13,08,25,4.80
2003,02,13,08,26,4.80
2003,02,13,08,27,4.90
2003,02,13,08,28,4.90
2003,02,13,08,29,4.90
2003,02,13,08,30,5.00
2003,02,13,08,31,5.10
2003,02,13,08,32,5.10
2003,02,13,08,33,5.20
2003,02,13,08,34,5.20
2003,02,13,08,35,5.30
2003,02,13,08,36,5.30
2003,02,13,08,37,5.30
2003,02,13,08,38,5.40
2003,02,13,08,39,5.50
2003,02,13,08,40,5.50
2003,02,13,08,41,5.60
2003,02,13,08,42,5.60
2003,02,13,08,43,5.70
2003,02,13,08,44,5.70
2003,02,13,08,45,5.70
2003,02,13,08,46,5.80
2003,02,13,08,47,5.80
2003,02,13,08,48,5.90
2003,02,13,08,49,5.90
2003,02,13,08,50,5.90
2003,02,13,08,51,6.00
2003,02,13,08,52,6.00
2003,02,13,08,53,6.10
2003,02,13,08,54,6.10
2003,02,13,08,55,6.10
2003,02,13,08,56,6.20
2003,02,13,08,57,6.20
2003,02,13,08,58,6.20
2003,02,13,08,59,6.20
2003,02,13,09,00,6.20
2003,02,13,09,01,6.20
2003,02,13,09,02,6.20
2003,02,13,09,03,6.30
2003,02,13,09,04,6.30
2003,02,13,09,05,6.30
2003,02,13,09,06,6.30
2003,02,13,09,07,6.40
2003,02,13,09,08,6.40
2003,02,13,09,09,6.40
2003,02,13,09,10,6.40
2003,02,13,09,11,6.40
2003,02,13,09,12,6.40
2003,02,13,09,13,6.40
2003,02,13,09,14,6.40
2003,02,13,09,15,6.30
2003,02,13,09,16,6.30
2003,02,13,09,17,6.30
2003,02,13,09,18,6.30
2003,02,13,09,19,6.30
2003,02,13,09,20,6.40
2003,02,13,09,21,6.40
2003,02,13,09,22,6.40
2003,02,13,09,23,6.40
2003,02,13,09,24,6.40
2003,02,13,09,25,6.40
2003,02,13,09,26,6.40
2003,02,13,09,27,6.40
2003,02,13,09,28,6.40
2003,02,13,09,29,6.50
2003,02,13,09,30,6.60
2003,02,13,09,31,6.60
2003,02,13,09,32,6.60
2003,02,13,09,33,6.60
2003,02,13,09,34,6.60
2003,02,13,09,35,6.70
2003,02,13,09,36,6.70
2003,02,13,09,37,6.70
2003,02,13,09,38,6.70
2003,02,13,09,39,6.80
2003,02,13,09,40,6.80
2003,02,13,09,41,6.80
2003,02,13,09,42,6.80
2003,02,13,09,43,6.90
2003,02,13,09,44,6.90
2003,02,13,09,45,6.90
2003,02,13,09,46,6.90
2003,02,13,09,47,6.90
2003,02,13,09,48,6.90
2003,02,13,09,49,6.90
2003,02,13,09,50,7.00
2003,02,13,09,51,7.00
2003,02,13,09,52,7.10
2003,02,13,09,53,7.10
2003,02,13,09,54,7.10
2003,02,13,09,55,7.10
2003,02,13,09,56,7.10
2003,02,13,09,57,7.10
2003,02,13,09,58,7.10
2003,02,13,09,59,7.10
2003,02,13,10,00,7.10
2003,02,13,10,01,7.10
2003,02,13,10,02,7.10
2003,02,13,10,03,7.10
2003,02,13,10,04,7.10
2003,02,13,10,05,7.00
2003,02,13,10,06,7.00
2003,02,13,10,07,7.00
2003,02,13,10,08,7.00
2003,02,13,10,09,7.00
2003,02,13,10,10,6.90
2003,02,13,10,11,6.90
2003,02,13,10,12,6.90
2003,02,13,10,13,6.90
2003,02,13,10,14,6.80
2003,02,13,10,15,6.80
2003,02,13,10,16,6.80
2003,02,13,10,17,6.80
2003,02,13,10,18,6.80
2003,02,13,10,19,6.90
2003,02,13,10,20,6.90
2003,02,13,10,21,6.90
2003,02,13,10,22,7.00
2003,02,13,10,23,7.00
2003,02,13,10,24,7.10
2003,02,13,10,25,7.10
2003,02,13,10,26,7.10
2003,02,13,10,27,7.20
2003,02,13,10,28,7.20
2003,02,13,10,29,7.20
2003,02,13,10,30,7.20
2003,02,13,10,31,7.20
2003,02,13,10,32,7.20
2003,02,13,10,33,7.20
2003,02,13,10,34,7.20
2003,02,13,10,35,7.20
2003,02,13,10,36,7.10
2003,02,13,10,37,7.10
2003,02,13,10,38,7.10
2003,02,13,10,39,7.10
2003,02,13,10,40,7.10
2003,02,13,10,41,7.10
2003,02,13,10,42,7.20
2003,02,13,10,43,7.20
2003,02,13,10,44,7.20
2003,02,13,10,45,7.20
2003,02,13,10,46,7.20
2003,02,13,10,47,7.20
2003,02,13,10,48,7.10
2003,02,13,10,49,7.10
2003,02,13,10,50,7.00
2003,02,13,10,51,7.00
2003,02,13,10,52,7.00
2003,02,13,10,53,7.00
2003,02,13,10,54,7.00
2003,02,13,10,55,7.00
2003,02,13,10,56,7.00
2003,02,13,10,57,7.10
2003,02,13,10,58,7.10
2003,02,13,10,59,7.10
2003,02,13,11,00,7.10
2003,02,13,11,01,7.10
2003,02,13,11,02,7.20
2003,02,13,11,03,7.20
2003,02,13,11,04,7.20
2003,02,13,11,05,7.20
2003,02,13,11,06,7.30
2003,02,13,11,07,7.30
2003,02,13,11,08,7.30
2003,02,13,11,09,7.30
2003,02,13,11,10,7.30
2003,02,13,11,11,7.40
2003,02,13,11,12,7.40
2003,02,13,11,13,7.40
2003,02,13,11,14,7.40
2003,02,13,11,15,7.40
2003,02,13,11,16,7.40
2003,02,13,11,17,7.30
2003,02,13,11,18,7.40
2003,02,13,11,19,7.40
2003,02,13,11,20,7.50
2003,02,13,11,21,7.50
2003,02,13,11,22,7.50
2003,02,13,11,23,7.60
2003,02,13,11,24,7.60
2003,02,13,11,25,7.60
2003,02,13,11,26,7.70
2003,02,13,11,27,7.70
2003,02,13,11,28,7.70
2003,02,13,11,29,7.80
2003,02,13,11,30,7.80
2003,02,13,11,31,7.80
2003,02,13,11,32,7.80
2003,02,13,11,33,7.90
2003,02,13,11,34,7.90
2003,02,13,11,35,8.00
2003,02,13,11,36,8.00
2003,02,13,11,37,8.00
2003,02,13,11,38,8.00
2003,02,13,11,39,8.00
2003,02,13,11,40,8.00
2003,02,13,11,41,8.10
2003,02,13,11,42,8.10
2003,02,13,11,43,8.10
2003,02,13,11,44,8.20
2003,02,13,11,45,8.20
2003,02,13,11,46,8.10
2003,02,13,11,47,8.10
2003,02,13,11,48,8.10
2003,02,13,11,49,8.10
2003,02,13,11,50,8.20
2003,02,13,11,51,8.20
2003,02,13,11,52,8.20
2003,02,13,11,53,8.20
2003,02,13,11,54,8.20
2003,02,13,11,55,8.20
2003,02,13,11,56,8.20
2003,02,13,11,57,8.10
2003,02,13,11,58,8.10
2003,02,13,11,59,8.10
2003,02,13,12,00,8.10
2003,02,13,12,01,8.10
2003,02,13,12,02,8.00
2003,02,13,12,03,8.00
2003,02,13,12,04,7.90
2003,02,13,12,05,7.90
2003,02,13,12,06,7.90
2003,02,13,12,07,7.80
2003,02,13,12,08,7.80
2003,02,13,12,09,7.90
2003,02,13,12,10,7.90
2003,02,13,12,11,7.90
2003,02,13,12,12,7.90
2003,02,13,12,13,8.00
2003,02,13,12,14,8.00
2003,02,13,12,15,8.00
2003,02,13,12,16,8.00
2003,02,13,12,17,8.00
2003,02,13,12,18,8.00
2003,02,13,12,19,8.10
2003,02,13,12,20,8.10
2003,02,13,12,21,8.20
2003,02,13,12,22,8.20
2003,02,13,12,23,8.20
2003,02,13,12,24,8.20
2003,02,13,12,25,8.20
2003,02,13,12,26,8.20
2003,02,13,12,27,8.20
2003,02,13,12,28,8.20
2003,02,13,12,29,8.30
2003,02,13,12,30,8.40
2003,02,13,12,31,8.50
2003,02,13,12,32,8.60
2003,02,13,12,33,8.70
2003,02,13,12,34,8.80
2003,02,13,12,35,8.80
2003,02,13,12,36,8.90
2003,02,13,12,37,8.90
2003,02,13,12,38,9.00
2003,02,13,12,39,9.00
2003,02,13,12,40,9.10
2003,02,13,12,41,9.10
2003,02,13,12,42,9.10
2003,02,13,12,43,9.10
2003,02,13,12,44,9.20
2003,02,13,12,45,9.20
2003,02,13,12,46,9.20
2003,02,13,12,47,9.20
2003,02,13,12,48,9.20
2003,02,13,12,49,9.20
2003,02,13,12,50,9.20
2003,02,13,12,51,9.20
2003,02,13,12,52,9.10
2003,02,13,12,53,9.10
2003,02,13,12,54,9.10
2003,02,13,12,55,9.00
2003,02,13,12,56,8.90
2003,02,13,12,57,8.90
2003,02,13,12,58,8.90
2003,02,13,12,59,8.90
2003,02,13,13,00,8.90
2003,02,13,13,01,8.90
2003,02,13,13,02,8.90
2003,02,13,13,03,8.80
2003,02,13,13,04,8.80
2003,02,13,13,05,8.80
2003,02,13,13,06,8.80
2003,02,13,13,07,8.80
2003,02,13,13,08,8.80
2003,02,13,13,09,8.80
2003,02,13,13,10,8.80
2003,02,13,13,11,8.80
2003,02,13,13,12,8.80
2003,02,13,13,13,8.90
2003,02,13,13,14,8.90
2003,02,13,13,15,8.90
2003,02,13,13,16,8.90
2003,02,13,13,17,9.00
2003,02,13,13,18,9.00
2003,02,13,13,19,9.00
2003,02,13,13,20,9.00
2003,02,13,13,21,9.00
2003,02,13,13,22,9.00
2003,02,13,13,23,8.90
2003,02,13,13,24,8.90
2003,02,13,13,25,8.80
2003,02,13,13,26,8.80
2003,02,13,13,27,8.80
2003,02,13,13,28,8.80
2003,02,13,13,29,8.90
2003,02,13,13,30,8.90
2003,02,13,13,31,8.90
2003,02,13,13,32,9.00
2003,02,13,13,33,9.00
2003,02,13,13,34,9.10
2003,02,13,13,35,9.10
2003,02,13,13,36,9.00
2003,02,13,13,37,8.90
2003,02,13,13,38,8.80
2003,02,13,13,39,8.70
2003,02,13,13,40,8.70
2003,02,13,13,41,8.70
2003,02,13,13,42,8.70
2003,02,13,13,43,8.70
2003,02,13,13,44,8.80
2003,02,13,13,45,8.80
2003,02,13,13,46,8.80
2003,02,13,13,47,8.80
2003,02,13,13,48,8.90
2003,02,13,13,49,9.00
2003,02,13,13,50,9.10
2003,02,13,13,51,9.20
2003,02,13,13,52,9.20
2003,02,13,13,53,9.20
2003,02,13,13,54,9.20
2003,02,13,13,55,9.20
2003,02,13,13,56,9.20
2003,02,13,13,57,9.20
2003,02,13,13,58,9.10
2003,02,13,13,59,9.00
2003,02,13,14,00,8.90
2003,02,13,14,01,8.90
2003,02,13,14,02,8.80
2003,02,13,14,03,8.80
2003,02,13,14,04,8.80
2003,02,13,14,05,8.80
2003,02,13,14,06,8.70
2003,02,13,14,07,8.70
2003,02,13,14,08,8.70
2003,02,13,14,09,8.70
2003,02,13,14,10,8.70
2003,02,13,14,11,8.70
2003,02,13,14,12,8.70
2003,02,13,14,13,8.70
2003,02,13,14,14,8.70
2003,02,13,14,15,8.70
2003,02,13,14,16,8.70
2003,02,13,14,17,8.70
2003,02,13,14,18,8.70
2003,02,13,14,19,8.60
2003,02,13,14,20,8.50
2003,02,13,14,21,8.50
2003,02,13,14,22,8.50
2003,02,13,14,23,8.50
2003,02,13,14,24,8.50
2003,02,13,14,25,8.50
2003,02,13,14,26,8.50
2003,02,13,14,27,8.60
2003,02,13,14,28,8.60
2003,02,13,14,29,8.60
2003,02,13,14,30,8.60
2003,02,13,14,31,8.60
2003,02,13,14,32,8.70
2003,02,13,14,33,8.70
2003,02,13,14,34,8.70
2003,02,13,14,35,8.70
2003,02,13,14,36,8.70
2003,02,13,14,37,8.70
2003,02,13,14,38,8.70
2003,02,13,14,39,8.70
2003,02,13,14,40,8.80
2003,02,13,14,41,8.90
2003,02,13,14,42,9.00
2003,02,13,14,43,9.00
2003,02,13,14,44,8.90
2003,02,13,14,45,8.90
2003,02,13,14,46,8.90
2003,02,13,14,47,8.90
2003,02,13,14,48,9.00
2003,02,13,14,49,9.00
2003,02,13,14,50,9.00
2003,02,13,14,51,9.10
2003,02,13,14,52,9.10
2003,02,13,14,53,9.10
2003,02,13,14,54,9.00
2003,02,13,14,55,9.10
2003,02,13,14,56,9.20
2003,02,13,14,57,9.20
2003,02,13,14,58,9.20
2003,02,13,14,59,9.20
2003,02,13,15,00,9.20
2003,02,13,15,01,9.20
2003,02,13,15,02,9.30
2003,02,13,15,03,9.30
2003,02,13,15,04,9.30
2003,02,13,15,05,9.30
2003,02,13,15,06,9.30
2003,02,13,15,07,9.20
2003,02,13,15,08,9.30
2003,02,13,15,09,9.40
2003,02,13,15,10,9.40
2003,02,13,15,11,9.40
2003,02,13,15,12,9.30
2003,02,13,15,13,9.30
2003,02,13,15,14,9.30
2003,02,13,15,15,9.40
2003,02,13,15,16,9.50
2003,02,13,15,17,9.60
2003,02,13,15,18,9.70
2003,02,13,15,19,9.70
2003,02,13,15,20,9.80
2003,02,13,15,21,9.80
2003,02,13,15,22,9.80
2003,02,13,15,23,9.80
2003,02,13,15,24,9.70
2003,02,13,15,25,9.70
2003,02,13,15,26,9.70
2003,02,13,15,27,9.60
2003,02,13,15,28,9.60
2003,02,13,15,29,9.70
2003,02,13,15,30,9.70
2003,02,13,15,31,9.80
2003,02,13,15,32,9.80
2003,02,13,15,33,9.70
2003,02,13,15,34,9.70
2003,02,13,15,35,9.70
2003,02,13,15,36,9.70
2003,02,13,15,37,9.60
2003,02,13,15,38,9.60
2003,02,13,15,39,9.70
2003,02,13,15,40,9.70
2003,02,13,15,41,9.70
2003,02,13,15,42,9.70
2003,02,13,15,43,9.70
2003,02,13,15,44,9.70
2003,02,13,15,45,9.70
2003,02,13,15,46,9.60
2003,02,13,15,47,9.60
2003,02,13,15,48,9.50
2003,02,13,15,49,9.40
2003,02,13,15,50,9.40
2003,02,13,15,51,9.30
2003,02,13,15,52,9.30
2003,02,13,15,53,9.20
2003,02,13,15,54,9.20
2003,02,13,15,55,9.20
2003,02,13,15,56,9.10
2003,02,13,15,57,9.10
2003,02,13,15,58,9.00
2003,02,13,15,59,9.00
2003,02,13,16,00,9.00
2003,02,13,16,01,9.00
2003,02,13,16,02,8.90
2003,02,13,16,03,8.90
2003,02,13,16,04,8.90
2003,02,13,16,05,8.90
2003,02,13,16,06,8.90
2003,02,13,16,07,8.80
2003,02,13,16,08,8.80
2003,02,13,16,09,8.70
2003,02,13,16,10,8.70
2003,02,13,16,11,8.70
2003,02,13,16,12,8.70
2003,02,13,16,13,8.60
2003,02,13,16,14,8.60
2003,02,13,16,15,8.50
2003,02,13,16,16,8.50
2003,02,13,16,17,8.50
2003,02,13,16,18,8.50
2003,02,13,16,19,8.50
2003,02,13,16,20,8.40
2003,02,13,16,21,8.40
2003,02,13,16,22,8.40
2003,02,13,16,23,8.40
2003,02,13,16,24,8.40
2003,02,13,16,25,8.40
2003,02,13,16,26,8.40
2003,02,13,16,27,8.40
2003,02,13,16,28,8.40
2003,02,13,16,29,8.40
2003,02,13,16,30,8.30
2003,02,13,16,31,8.30
2003,02,13,16,32,8.30
2003,02,13,16,33,8.30
2003,02,13,16,34,8.30
2003,02,13,16,35,8.30
2003,02,13,16,36,8.40
2003,02,13,16,37,8.40
2003,02,13,16,38,8.40
2003,02,13,16,39,8.40
2003,02,13,16,40,8.40
2003,02,13,16,41,8.30
2003,02,13,16,42,8.40
2003,02,13,16,43,8.40
2003,02,13,16,44,8.50
2003,02,13,16,45,8.40
2003,02,13,16,46,8.40
2003,02,13,16,47,8.40
2003,02,13,16,48,8.40
2003,02,13,16,49,8.40
2003,02,13,16,50,8.30
2003,02,13,16,51,8.30
2003,02,13,16,52,8.30
2003,02,13,16,53,8.40
2003,02,13,16,54,8.40
2003,02,13,16,55,8.40
2003,02,13,16,56,8.40
2003,02,13,16,57,8.40
2003,02,13,16,58,8.30
2003,02,13,16,59,8.20
2003,02,13,17,00,8.20
2003,02,13,17,01,8.20
2003,02,13,17,02,8.10
2003,02,13,17,03,8.10
2003,02,13,17,04,8.10
2003,02,13,17,05,8.10
2003,02,13,17,06,8.10
2003,02,13,17,07,8.00
2003,02,13,17,08,8.00
2003,02,13,17,09,8.00
2003,02,13,17,10,8.00
2003,02,13,17,11,8.00
2003,02,13,17,12,8.10
2003,02,13,17,13,8.00
2003,02,13,17,14,8.00
2003,02,13,17,15,8.00
2003,02,13,17,16,8.00
2003,02,13,17,17,8.00
2003,02,13,17,18,8.00
2003,02,13,17,19,8.00
2003,02,13,17,20,8.00
2003,02,13,17,21,8.00
2003,02,13,17,22,8.00
2003,02,13,17,23,8.00
2003,02,13,17,24,8.10
2003,02,13,17,25,8.10
2003,02,13,17,26,8.10
2003,02,13,17,27,8.10
2003,02,13,17,28,8.00
2003,02,13,17,29,8.00
2003,02,13,17,30,8.00
2003,02,13,17,31,8.00
2003,02,13,17,32,7.90
2003,02,13,17,33,7.90
2003,02,13,17,34,7.90
2003,02,13,17,35,7.80
2003,02,13,17,36,7.80
2003,02,13,17,37,7.80
2003,02,13,17,38,7.80
2003,02,13,17,39,7.80
2003,02,13,17,40,7.80
2003,02,13,17,41,7.80
2003,02,13,17,42,7.70
2003,02,13,17,43,7.70
2003,02,13,17,44,7.70
2003,02,13,17,45,7.70
2003,02,13,17,46,7.60
2003,02,13,17,47,7.60
2003,02,13,17,48,7.60
2003,02,13,17,49,7.60
2003,02,13,17,50,7.50
2003,02,13,17,51,7.50
2003,02,13,17,52,7.50
2003,02,13,17,53,7.50
2003,02,13,17,54,7.50
2003,02,13,17,55,7.50
2003,02,13,17,56,7.50
2003,02,13,17,57,7.50
2003,02,13,17,58,7.50
2003,02,13,17,59,7.50
2003,02,13,18,00,7.50
2003,02,13,18,01,7.50
2003,02,13,18,02,7.50
2003,02,13,18,03,7.50
2003,02,13,18,04,7.50
2003,02,13,18,05,7.50
2003,02,13,18,06,7.50
2003,02,13,18,07,7.50
2003,02,13,18,08,7.40
2003,02,13,18,09,7.30
2003,02,13,18,10,7.30
2003,02,13,18,11,7.30
2003,02,13,18,12,7.30
2003,02,13,18,13,7.30
2003,02,13,18,14,7.30
2003,02,13,18,15,7.30
2003,02,13,18,16,7.30
2003,02,13,18,17,7.20
2003,02,13,18,18,7.20
2003,02,13,18,19,7.20
2003,02,13,18,20,7.20
2003,02,13,18,21,7.10
2003,02,13,18,22,7.10
2003,02,13,18,23,7.10
2003,02,13,18,24,7.10
2003,02,13,18,25,7.00
2003,02,13,18,26,7.00
2003,02,13,18,27,7.00
2003,02,13,18,28,7.00
2003,02,13,18,29,7.00
2003,02,13,18,30,7.00
2003,02,13,18,31,7.00
2003,02,13,18,32,6.90
2003,02,13,18,33,6.90
2003,02,13,18,34,6.90
2003,02,13,18,35,6.90
2003,02,13,18,36,6.90
2003,02,13,18,37,6.90
2003,02,13,18,38,6.90
2003,02,13,18,39,6.90
2003,02,13,18,40,6.90
2003,02,13,18,41,6.90
2003,02,13,18,42,6.90
2003,02,13,18,43,6.90
2003,02,13,18,44,6.90
2003,02,13,18,45,6.90
2003,02,13,18,46,6.90
2003,02,13,18,47,6.90
2003,02,13,18,48,6.90
2003,02,13,18,49,6.90
2003,02,13,18,50,6.90
2003,02,13,18,51,6.90
2003,02,13,18,52,6.90
2003,02,13,18,53,6.90
2003,02,13,18,54,6.90
2003,02,13,18,55,6.90
2003,02,13,18,56,6.90
2003,02,13,18,57,6.90
2003,02,13,18,58,6.90
2003,02,13,18,59,6.90
2003,02,13,19,00,6.80
2003,02,13,19,01,6.80
2003,02,13,19,02,6.80
2003,02,13,19,03,6.80
2003,02,13,19,04,6.80
2003,02,13,19,05,6.80
2003,02,13,19,06,6.80
2003,02,13,19,07,6.80
2003,02,13,19,08,6.80
2003,02,13,19,09,6.80
2003,02,13,19,10,6.80
2003,02,13,19,11,6.80
2003,02,13,19,12,6.70
2003,02,13,19,13,6.70
2003,02,13,19,14,6.70
2003,02,13,19,15,6.70
2003,02,13,19,16,6.60
2003,02,13,19,17,6.60
2003,02,13,19,18,6.60
2003,02,13,19,19,6.60
2003,02,13,19,20,6.60
2003,02,13,19,21,6.60
2003,02,13,19,22,6.60
2003,02,13,19,23,6.60
2003,02,13,19,24,6.60
2003,02,13,19,25,6.60
2003,02,13,19,26,6.60
2003,02,13,19,27,6.60
2003,02,13,19,28,6.60
2003,02,13,19,29,6.60
2003,02,13,19,30,6.60
2003,02,13,19,31,6.60
2003,02,13,19,32,6.60
2003,02,13,19,33,6.60
2003,02,13,19,34,6.60
2003,02,13,19,35,6.60
2003,02,13,19,36,6.60
2003,02,13,19,37,6.60
2003,02,13,19,38,6.60
2003,02,13,19,39,6.60
2003,02,13,19,40,6.60
2003,02,13,19,41,6.60
2003,02,13,19,42,6.60
2003,02,13,19,43,6.60
2003,02,13,19,44,6.60
2003,02,13,19,45,6.50
2003,02,13,19,46,6.40
2003,02,13,19,47,6.40
2003,02,13,19,48,6.40
2003,02,13,19,49,6.40
2003,02,13,19,50,6.40
2003,02,13,19,51,6.40
2003,02,13,19,52,6.40
2003,02,13,19,53,6.40
2003,02,13,19,54,6.40
2003,02,13,19,55,6.40
2003,02,13,19,56,6.40
2003,02,13,19,57,6.40
2003,02,13,19,58,6.40
2003,02,13,19,59,6.40
2003,02,13,20,00,6.30
2003,02,13,20,01,6.30
2003,02,13,20,02,6.30
2003,02,13,20,03,6.30
2003,02,13,20,04,6.20
2003,02,13,20,05,6.20
2003,02,13,20,06,6.20
2003,02,13,20,07,6.20
2003,02,13,20,08,6.10
2003,02,13,20,09,6.10
2003,02,13,20,10,6.10
2003,02,13,20,11,6.00
2003,02,13,20,12,6.00
2003,02,13,20,13,6.00
2003,02,13,20,14,6.00
2003,02,13,20,15,6.00
2003,02,13,20,16,6.00
2003,02,13,20,17,6.00
2003,02,13,20,18,6.00
2003,02,13,20,19,6.00
2003,02,13,20,20,6.00
2003,02,13,20,21,6.00
2003,02,13,20,22,6.00
2003,02,13,20,23,6.00
2003,02,13,20,24,6.10
2003,02,13,20,25,6.10
2003,02,13,20,26,6.10
2003,02,13,20,27,6.10
2003,02,13,20,28,6.10
2003,02,13,20,29,6.10
2003,02,13,20,30,6.20
2003,02,13,20,31,6.20
2003,02,13,20,32,6.20
2003,02,13,20,33,6.20
2003,02,13,20,34,6.20
2003,02,13,20,35,6.20
2003,02,13,20,36,6.20
2003,02,13,20,37,6.30
2003,02,13,20,38,6.30
2003,02,13,20,39,6.40
2003,02,13,20,40,6.40
2003,02,13,20,41,6.40
2003,02,13,20,42,6.60
2003,02,13,20,43,6.60
2003,02,13,20,44,6.60
2003,02,13,20,45,6.70
2003,02,13,20,46,6.70
2003,02,13,20,47,6.80
2003,02,13,20,48,6.80
2003,02,13,20,49,6.80
2003,02,13,20,50,6.80
2003,02,13,20,51,6.80
2003,02,13,20,52,6.80
2003,02,13,20,53,6.80
2003,02,13,20,54,6.80
2003,02,13,20,55,6.80
2003,02,13,20,56,6.80
2003,02,13,20,57,6.80
2003,02,13,20,58,6.80
2003,02,13,20,59,6.70
2003,02,13,21,00,6.70
2003,02,13,21,01,6.70
2003,02,13,21,02,6.60
2003,02,13,21,03,6.60
2003,02,13,21,04,6.60
2003,02,13,21,05,6.60
2003,02,13,21,06,6.60
2003,02,13,21,07,6.70
2003,02,13,21,08,6.70
2003,02,13,21,09,6.70
2003,02,13,21,10,6.70
2003,02,13,21,11,6.70
2003,02,13,21,12,6.60
2003,02,13,21,13,6.60
2003,02,13,21,14,6.50
2003,02,13,21,15,6.40
2003,02,13,21,16,6.40
2003,02,13,21,17,6.40
2003,02,13,21,18,6.40
2003,02,13,21,19,6.40
2003,02,13,21,20,6.60
2003,02,13,21,21,6.60
2003,02,13,21,22,6.60
2003,02,13,21,23,6.60
2003,02,13,21,24,6.60
2003,02,13,21,25,6.60
2003,02,13,21,26,6.60
2003,02,13,21,27,6.60
2003,02,13,21,28,6.60
2003,02,13,21,29,6.60
2003,02,13,21,30,6.60
2003,02,13,21,31,6.60
2003,02,13,21,32,6.60
2003,02,13,21,33,6.60
2003,02,13,21,34,6.60
2003,02,13,21,35,6.60
2003,02,13,21,36,6.70
2003,02,13,21,37,6.70
2003,02,13,21,38,6.70
2003,02,13,21,39,6.70
2003,02,13,21,40,6.70
2003,02,13,21,41,6.80
2003,02,13,21,42,6.80
2003,02,13,21,43,6.80
2003,02,13,21,44,6.80
2003,02,13,21,45,6.80
2003,02,13,21,46,6.90
2003,02,13,21,47,6.90
2003,02,13,21,48,6.90
2003,02,13,21,49,6.90
2003,02,13,21,50,6.90
2003,02,13,21,51,6.90
2003,02,13,21,52,6.90
2003,02,13,21,53,6.90
2003,02,13,21,54,6.90
2003,02,13,21,55,6.90
2003,02,13,21,56,6.90
2003,02,13,21,57,6.90
2003,02,13,21,58,7.00
2003,02,13,21,59,7.00
2003,02,13,22,00,7.00
2003,02,13,22,01,7.00
2003,02,13,22,02,7.00
2003,02,13,22,03,7.10
2003,02,13,22,04,7.10
2003,02,13,22,05,7.00
2003,02,13,22,06,7.00
2003,02,13,22,07,7.00
2003,02,13,22,08,7.00
2003,02,13,22,09,6.90
2003,02,13,22,10,6.90
2003,02,13,22,11,6.80
2003,02,13,22,12,6.80
2003,02,13,22,13,6.70
2003,02,13,22,14,6.70
2003,02,13,22,15,6.70
2003,02,13,22,16,6.60
2003,02,13,22,17,6.70
2003,02,13,22,18,6.70
2003,02,13,22,19,6.70
2003,02,13,22,20,6.70
2003,02,13,22,21,6.70
2003,02,13,22,22,6.70
2003,02,13,22,23,6.70
2003,02,13,22,24,6.70
2003,02,13,22,25,6.60
2003,02,13,22,26,6.60
2003,02,13,22,27,6.60
2003,02,13,22,28,6.60
2003,02,13,22,29,6.60
2003,02,13,22,30,6.60
2003,02,13,22,31,6.60
2003,02,13,22,32,6.60
2003,02,13,22,33,6.60
2003,02,13,22,34,6.60
2003,02,13,22,35,6.60
2003,02,13,22,36,6.60
2003,02,13,22,37,6.60
2003,02,13,22,38,6.60
2003,02,13,22,39,6.60